When you browse on this site, cookies collect data to enhance your experience and personalize the content and advertising you see.
Visit our Privacy Policy to learn more. By continuing to use the site, you agree to this use of cookies and data.
  • In Hungary
  • List of Countries
  • For 7 days
  • Water Temperature
  • Satellite Maps
  • Weather Map
  • News
  • Weather Widgets
  • user-avatar
    Login

    Hourly Weather Bumbesti-Jiu

    Today, 21 March, Thursday

    Time Temperature Precipitation Wind Pressure Humidity
    00:00 +7°C° 0.1 mm 0 mps 741 mmHg 87%
    01:00 +7°C° 0.1 mm 0 mps 741 mmHg 88%
    02:00 +7°C° 0 mm 0 mps 742 mmHg 87%
    03:00 +8°C° 0.2 mm 1 mps 742 mmHg 88%
    04:00 +8°C° 0.2 mm 1 mps 742 mmHg 89%
    05:00 +8°C° 0.2 mm 1 mps 742 mmHg 90%
    06:00 +7°C° 0.1 mm 1 mps 742 mmHg 89%
    07:00 +7°C° 0.1 mm 1 mps 742 mmHg 88%
    08:00 +8°C° 0 mm 1 mps 742 mmHg 85%
    09:00 +8°C° 0 mm 1 mps 743 mmHg 82%
    10:00 +9°C° 0 mm 1 mps 743 mmHg 78%
    11:00 +9°C° 0 mm 2 mps 743 mmHg 74%
    12:00 +10°C° 0 mm 2 mps 743 mmHg 72%
    13:00 +11°C° 0 mm 1 mps 742 mmHg 70%
    14:00 +11°C° 0 mm 1 mps 743 mmHg 72%
    15:00 +11°C° 0 mm 1 mps 742 mmHg 70%
    16:00 +12°C° 0 mm 1 mps 742 mmHg 69%
    17:00 +12°C° 0 mm 1 mps 742 mmHg 67%
    18:00 +11°C° 0 mm 1 mps 742 mmHg 72%
    19:00 +9°C° 0 mm 1 mps 742 mmHg 76%
    20:00 +8°C° 0 mm 1 mps 742 mmHg 81%
    21:00 +8°C° 0 mm 1 mps 742 mmHg 80%
    22:00 +8°C° 0 mm 1 mps 742 mmHg 78%
    23:00 +7°C° 0 mm 1 mps 742 mmHg 77%

    Tomorrow, 22 March, Friday

    Time Temperature Precipitation Wind Pressure Humidity
    00:00 +7°C° 0 mm 1 mps 742 mmHg 75%
    01:00 +7°C° 0 mm 1 mps 742 mmHg 73%
    02:00 +7°C° 0 mm 1 mps 742 mmHg 71%
    03:00 +7°C° 0 mm 1 mps 742 mmHg 70%
    04:00 +7°C° 0 mm 1 mps 741 mmHg 69%
    05:00 +6°C° 0 mm 1 mps 741 mmHg 68%
    06:00 +7°C° 0 mm 1 mps 741 mmHg 66%
    07:00 +8°C° 0 mm 1 mps 742 mmHg 64%
    08:00 +9°C° 0 mm 1 mps 742 mmHg 62%
    09:00 +11°C° 0 mm 1 mps 741 mmHg 58%
    10:00 +13°C° 0 mm 1 mps 741 mmHg 55%
    11:00 +15°C° 0 mm 1 mps 741 mmHg 51%
    12:00 +16°C° 0 mm 1 mps 741 mmHg 49%
    13:00 +16°C° 0 mm 1 mps 741 mmHg 47%
    14:00 +18°C° 0 mm 1 mps 740 mmHg 46%
    15:00 +18°C° 0 mm 1 mps 740 mmHg 47%
    16:00 +16°C° 0 mm 1 mps 739 mmHg 48%
    17:00 +16°C° 0 mm 1 mps 739 mmHg 48%
    18:00 +15°C° 0 mm 1 mps 739 mmHg 54%
    19:00 +13°C° 0 mm 1 mps 739 mmHg 59%
    20:00 +11°C° 0 mm 1 mps 739 mmHg 64%
    21:00 +11°C° 0 mm 1 mps 739 mmHg 65%
    22:00 +9°C° 0 mm 2 mps 739 mmHg 65%
    23:00 +9°C° 0 mm 2 mps 739 mmHg 66%

    Day after tomorrow, 23 March, Saturday

    Time Temperature Precipitation Wind Pressure Humidity
    00:00 +9°C° 0 mm 2 mps 739 mmHg 66%
    01:00 +8°C° 0 mm 2 mps 739 mmHg 66%
    02:00 +8°C° 0 mm 2 mps 739 mmHg 67%
    03:00 +8°C° 0 mm 2 mps 738 mmHg 67%
    04:00 +8°C° 0 mm 2 mps 738 mmHg 67%
    05:00 +9°C° 0 mm 1 mps 738 mmHg 67%
    06:00 +9°C° 0 mm 1 mps 738 mmHg 65%
    07:00 +10°C° 0 mm 1 mps 738 mmHg 64%
    08:00 +11°C° 0 mm 1 mps 738 mmHg 62%
    09:00 +13°C° 0 mm 1 mps 738 mmHg 56%
    10:00 +15°C° 0 mm 1 mps 738 mmHg 49%
    11:00 +18°C° 0 mm 1 mps 738 mmHg 43%
    12:00 +18°C° 0 mm 1 mps 737 mmHg 39%
    13:00 +18°C° 0 mm 2 mps 737 mmHg 35%
    14:00 +19°C° 0 mm 2 mps 737 mmHg 31%
    15:00 +19°C° 0 mm 2 mps 736 mmHg 31%
    16:00 +18°C° 0 mm 2 mps 736 mmHg 32%
    17:00 +18°C° 0 mm 2 mps 736 mmHg 33%
    18:00 +16°C° 0 mm 2 mps 736 mmHg 41%
    19:00 +14°C° 0 mm 2 mps 736 mmHg 48%
    20:00 +11°C° 0 mm 3 mps 736 mmHg 55%
    21:00 +10°C° 0 mm 2 mps 736 mmHg 56%
    22:00 +10°C° 0 mm 2 mps 736 mmHg 57%
    23:00 +9°C° 0 mm 2 mps 736 mmHg 58%

    24 March, Sunday

    Time Temperature Precipitation Wind Pressure Humidity
    00:00 +9°C° 0 mm 2 mps 736 mmHg 58%
    01:00 +8°C° 0 mm 2 mps 736 mmHg 59%
    02:00 +9°C° 0 mm 1 mps 736 mmHg 59%
    03:00 +8°C° 0 mm 1 mps 736 mmHg 60%
    04:00 +8°C° 0 mm 1 mps 736 mmHg 61%
    05:00 +6°C° 0 mm 0 mps 736 mmHg 63%
    06:00 +7°C° 0 mm 0 mps 736 mmHg 60%
    07:00 +8°C° 0 mm 0 mps 737 mmHg 58%
    08:00 +10°C° 0 mm 1 mps 737 mmHg 56%
    09:00 +11°C° 0 mm 1 mps 737 mmHg 50%
    10:00 +13°C° 0 mm 1 mps 737 mmHg 44%
    11:00 +15°C° 0 mm 2 mps 737 mmHg 39%
    12:00 +16°C° 0 mm 2 mps 736 mmHg 37%
    13:00 +17°C° 0 mm 2 mps 736 mmHg 36%
    14:00 +18°C° 0 mm 2 mps 735 mmHg 34%
    15:00 +18°C° 0 mm 2 mps 735 mmHg 36%
    16:00 +17°C° 0 mm 2 mps 735 mmHg 38%
    17:00 +17°C° 0 mm 2 mps 734 mmHg 40%
    18:00 +15°C° 0 mm 2 mps 734 mmHg 47%
    19:00 +13°C° 0 mm 1 mps 734 mmHg 54%
    20:00 +12°C° 0 mm 1 mps 734 mmHg 62%
    21:00 +11°C° 0 mm 1 mps 734 mmHg 63%
    22:00 +10°C° 0 mm 2 mps 734 mmHg 64%
    23:00 +10°C° 0 mm 2 mps 733 mmHg 65%

    25 March, Monday

    Time Temperature Precipitation Wind Pressure Humidity
    00:00 +9°C° 0 mm 2 mps 733 mmHg 66%
    01:00 +9°C° 0 mm 2 mps 733 mmHg 67%
    02:00 +9°C° 0 mm 2 mps 733 mmHg 68%
    03:00 +9°C° 0 mm 2 mps 732 mmHg 69%
    04:00 +9°C° 0 mm 2 mps 732 mmHg 71%
    05:00 +9°C° 0 mm 2 mps 732 mmHg 72%
    06:00 +10°C° 0 mm 1 mps 732 mmHg 71%
    07:00 +11°C° 0 mm 1 mps 732 mmHg 69%
    08:00 +12°C° 0 mm 1 mps 732 mmHg 68%
    09:00 +13°C° 0 mm 1 mps 733 mmHg 63%
    10:00 +15°C° 0 mm 2 mps 733 mmHg 57%
    11:00 +16°C° 0 mm 2 mps 733 mmHg 52%
    12:00 +16°C° 0 mm 2 mps 733 mmHg 48%
    13:00 +16°C° 0 mm 2 mps 733 mmHg 44%
    14:00 +17°C° 0 mm 2 mps 733 mmHg 40%
    15:00 +16°C° 0 mm 2 mps 732 mmHg 40%
    16:00 +15°C° 0 mm 2 mps 732 mmHg 40%
    17:00 +14°C° 0 mm 3 mps 732 mmHg 40%
    18:00 +13°C° 0 mm 2 mps 732 mmHg 48%
    19:00 +10°C° 0 mm 2 mps 732 mmHg 55%
    20:00 +8°C° 0 mm 2 mps 733 mmHg 63%
    21:00 +7°C° 0 mm 2 mps 733 mmHg 64%
    22:00 +8°C° 0 mm 1 mps 733 mmHg 64%
    23:00 +7°C° 0 mm 1 mps 733 mmHg 64%

    26 March, Tuesday

    Time Temperature Precipitation Wind Pressure Humidity
    00:00 +7°C° 0 mm 1 mps 732 mmHg 64%
    01:00 +7°C° 0 mm 1 mps 732 mmHg 63%
    02:00 +7°C° 0 mm 1 mps 732 mmHg 63%
    03:00 +6°C° 0 mm 1 mps 732 mmHg 66%
    04:00 +6°C° 0 mm 1 mps 732 mmHg 69%
    05:00 +6°C° 0 mm 1 mps 731 mmHg 73%
    06:00 +6°C° 0 mm 1 mps 731 mmHg 69%
    07:00 +6°C° 0 mm 2 mps 731 mmHg 65%
    08:00 +6°C° 0 mm 2 mps 731 mmHg 62%
    09:00 +7°C° 0 mm 2 mps 731 mmHg 56%
    10:00 +8°C° 0 mm 3 mps 731 mmHg 51%
    11:00 +8°C° 0 mm 3 mps 731 mmHg 46%
    12:00 +7°C° 0.1 mm 4 mps 731 mmHg 45%
    13:00 +7°C° 0.1 mm 5 mps 731 mmHg 43%
    14:00 +7°C° 0.1 mm 6 mps 731 mmHg 42%
    15:00 +7°C° 0 mm 6 mps 731 mmHg 43%
    16:00 +5°C° 0 mm 6 mps 731 mmHg 44%
    17:00 +5°C° 0 mm 6 mps 732 mmHg 45%
    18:00 +5°C° 0 mm 5 mps 732 mmHg 50%
    19:00 +4°C° 0 mm 4 mps 733 mmHg 55%
    20:00 +3°C° 0 mm 3 mps 733 mmHg 59%
    21:00 +3°C° 0 mm 3 mps 734 mmHg 59%
    22:00 +3°C° 0 mm 3 mps 734 mmHg 58%
    23:00 +3°C° 0 mm 3 mps 735 mmHg 57%
    Show more